Total_Precipitation_Accumulation
3.38 3.37 3.27 3.39 3.40 3.42 3.28 3.07 2.92 2.84 2.70 2.52 2.41 2.47 2.44 2.34 2.29 2.32 2.22 2.31 2.44 2.54 2.58 2.69 2.78 2.88 3.06 3.08 3.13 3.17 3.28 3.35 3.21 2.66 2.48 2.46 2.46 2.43 2.51 2.40 2.34 2.32 2.14
3.05 3.20 3.31 3.37 3.31 3.22 3.00 2.86 2.75 2.60 2.44 2.40 2.39 2.43 2.39 2.30 2.28 2.18 2.04 2.13 2.29 2.40 2.44 2.53 2.56 2.66 2.82 2.74 2.83 2.86 2.96 3.10 3.06 2.93 2.80 2.65 2.61 2.56 2.46 2.32 2.08 1.84 1.80
2.79 2.81 2.98 3.05 2.99 2.93 2.84 2.73 2.61 2.45 2.37 2.39 2.40 2.38 2.37 2.34 2.32 2.25 2.20 2.16 2.10 2.10 2.19 2.24 2.29 2.42 2.40 2.32 2.35 2.34 2.44 2.55 2.83 2.83 2.67 2.74 2.64 2.60 2.72 2.41 2.17 2.15 1.65
2.74 2.90 2.95 2.90 2.80 2.73 2.59 2.41 2.29 2.21 2.23 2.31 2.26 2.21 2.21 2.12 2.02 2.06 2.10 2.06 1.95 1.89 1.87 1.87 1.87 1.87 1.88 1.92 1.93 2.03 2.18 2.51 2.76 2.73 2.50 2.43 2.46 2.44 2.71 2.57 2.45 2.33 2.00
2.69 2.70 2.68 2.64 2.59 2.55 2.48 2.33 2.19 2.07 1.97 2.08 2.06 2.00 1.95 1.83 1.69 1.75 1.84 1.82 1.87 1.82 1.76 1.71 1.63 1.63 1.68 1.65 1.52 1.74 2.05 2.38 2.52 2.57 2.47 2.32 2.23 2.33 2.39 2.27 2.26 2.31 2.19
2.38 2.41 2.38 2.37 2.49 2.52 2.48 2.35 2.21 2.07 1.95 1.94 1.92 1.81 1.70 1.48 1.49 1.52 1.52 1.61 1.74 1.80 1.75 1.63 1.53 1.52 1.48 1.42 1.39 1.50 1.69 1.92 2.13 2.30 2.29 2.23 2.17 2.20 2.31 2.29 2.32 2.41 2.30
2.23 2.17 2.23 2.25 2.24 2.30 2.21 2.11 2.10 2.10 1.93 1.81 1.73 1.63 1.51 1.44 1.41 1.34 1.38 1.47 1.59 1.68 1.71 1.73 1.49 1.29 1.44 1.40 1.43 1.45 1.46 1.52 1.70 1.97 2.13 2.06 2.10 2.20 2.45 2.38 2.44 2.48 2.34
2.16 2.01 1.97 2.00 1.97 2.00 2.06 2.05 2.04 2.03 1.94 1.80 1.68 1.58 1.53 1.39 1.35 1.28 1.30 1.34 1.53 1.57 1.59 1.63 1.67 1.61 1.51 1.52 1.50 1.47 1.43 1.45 1.51 1.59 1.81 1.90 1.88 2.03 2.30 2.30 2.36 2.41 2.32
1.88 1.82 1.74 1.73 1.81 1.86 1.88 1.98 2.00 1.93 1.88 1.76 1.65 1.62 1.58 1.43 1.35 1.26 1.34 1.42 1.53 1.51 1.45 1.44 1.42 1.43 1.45 1.51 1.59 1.65 1.62 1.56 1.37 1.40 1.47 1.60 1.71 1.84 1.98 2.08 2.28 2.52 2.47
1.81 1.79 1.68 1.65 1.70 1.74 1.76 1.85 1.83 1.84 1.85 1.75 1.66 1.65 1.59 1.53 1.38 1.24 1.34 1.39 1.44 1.47 1.52 1.47 1.38 1.27 1.26 1.24 1.30 1.58 1.74 1.64 1.52 1.51 1.60 1.72 1.82 1.92 1.92 1.97 2.20 2.43 2.46
1.65 1.74 1.76 1.73 1.70 1.72 1.74 1.78 1.78 1.77 1.83 1.82 1.76 1.76 1.73 1.61 1.45 1.29 1.30 1.30 1.31 1.38 1.41 1.39 1.32 1.16 0.99 1.01 1.13 1.36 1.50 1.53 1.65 1.88 2.07 2.09 2.08 2.06 1.94 1.86 2.04 2.22 2.33
1.66 1.81 1.82 1.83 1.69 1.64 1.84 1.89 1.82 1.80 1.77 1.83 1.85 1.81 1.77 1.71 1.48 1.30 1.23 1.18 1.20 1.26 1.34 1.33 1.26 1.16 0.99 0.99 1.06 1.20 1.31 1.46 1.71 2.02 2.17 2.10 1.87 1.72 1.72 1.73 1.82 1.98 2.07
1.83 1.90 1.93 1.83 1.82 1.79 1.86 1.90 1.82 1.80 1.72 1.68 1.69 1.70 1.67 1.58 1.43 1.29 1.22 1.15 1.15 1.15 1.18 1.24 1.20 1.18 1.15 1.16 1.19 1.23 1.32 1.53 1.76 1.90 1.90 1.77 1.64 1.59 1.65 1.76 1.76 1.91 1.96
1.91 1.90 1.92 1.92 1.90 1.87 1.86 1.78 1.72 1.68 1.63 1.55 1.50 1.50 1.40 1.36 1.25 1.11 1.09 1.08 1.10 1.14 1.17 1.26 1.33 1.34 1.32 1.30 1.33 1.39 1.44 1.56 1.61 1.69 1.68 1.60 1.56 1.60 1.66 1.66 1.76 1.90 2.07
1.82 1.77 1.78 1.80 1.81 1.80 1.68 1.59 1.59 1.52 1.40 1.32 1.27 1.23 1.18 1.15 1.13 1.11 1.06 1.05 1.03 1.06 1.14 1.28 1.47 1.53 1.51 1.43 1.38 1.39 1.41 1.47 1.49 1.45 1.48 1.50 1.55 1.58 1.58 1.59 1.74 1.83 1.96
1.63 1.59 1.59 1.67 1.70 1.63 1.59 1.46 1.36 1.26 1.27 1.20 1.17 1.20 1.16 1.16 1.09 0.97 0.98 1.01 1.05 1.17 1.20 1.38 1.51 1.56 1.56 1.42 1.35 1.30 1.28 1.31 1.28 1.29 1.35 1.44 1.50 1.50 1.51 1.55 1.68 1.82 1.91
1.51 1.50 1.40 1.40 1.50 1.51 1.47 1.43 1.43 1.24 1.13 1.10 1.08 1.12 1.15 1.14 1.06 1.01 0.97 1.04 1.06 1.12 1.15 1.27 1.41 1.49 1.53 1.38 1.29 1.30 1.30 1.28 1.29 1.32 1.35 1.38 1.45 1.48 1.52 1.58 1.65 1.76 1.84
1.39 1.35 1.32 1.35 1.34 1.34 1.34 1.26 1.23 1.28 1.29 1.21 1.13 1.14 1.10 1.09 1.05 1.03 1.03 1.12 1.16 1.15 1.19 1.24 1.32 1.43 1.46 1.41 1.33 1.34 1.34 1.34 1.36 1.39 1.39 1.42 1.48 1.52 1.47 1.47 1.55 1.60 1.68
1.24 1.22 1.23 1.23 1.26 1.28 1.27 1.19 1.12 1.12 1.17 1.22 1.22 1.15 1.13 1.14 1.09 1.05 1.05 1.03 1.08 1.12 1.15 1.17 1.20 1.28 1.37 1.43 1.46 1.42 1.36 1.34 1.36 1.42 1.43 1.45 1.48 1.49 1.47 1.41 1.44 1.50 1.56
1.17 1.11 1.08 1.12 1.18 1.22 1.23 1.21 1.20 1.17 1.13 1.20 1.21 1.12 1.08 1.11 1.11 1.11 1.06 1.03 1.11 1.13 1.13 1.16 1.18 1.21 1.26 1.32 1.39 1.38 1.34 1.28 1.27 1.36 1.44 1.48 1.51 1.50 1.43 1.35 1.40 1.51 1.58
0.98 0.94 0.91 0.91 1.00 1.06 1.07 1.10 1.13 1.11 1.15 1.17 1.10 1.07 1.11 1.09 1.13 1.09 1.06 1.05 1.15 1.23 1.25 1.22 1.17 1.18 1.19 1.20 1.23 1.28 1.30 1.25 1.24 1.30 1.40 1.45 1.44 1.43 1.40 1.33 1.30 1.33 1.37
0.93 0.87 0.79 0.81 0.90 0.96 0.96 0.95 0.93 0.97 1.02 1.01 0.96 0.97 1.06 1.04 1.08 1.08 1.06 1.07 1.12 1.19 1.25 1.26 1.23 1.17 1.16 1.17 1.17 1.17 1.20 1.23 1.24 1.25 1.30 1.32 1.31 1.32 1.33 1.29 1.25 1.26 1.31
0.89 0.87 0.85 0.86 0.96 1.03 0.98 0.94 0.87 0.84 0.90 0.96 0.96 0.90 0.90 0.99 1.04 1.10 1.11 1.11 1.15 1.16 1.19 1.22 1.21 1.15 1.10 1.08 1.06 1.05 1.08 1.12 1.08 1.08 1.14 1.15 1.16 1.18 1.22 1.24 1.23 1.27 1.32
0.88 0.89 0.87 0.83 0.92 1.01 0.98 0.91 0.84 0.81 0.88 0.96 0.98 0.96 0.93 0.96 1.01 1.08 1.12 1.13 1.13 1.11 1.09 1.11 1.08 1.04 1.04 1.05 1.04 0.98 0.97 1.00 0.95 0.92 0.98 1.03 1.08 1.11 1.15 1.21 1.24 1.25 1.30
0.86 0.87 0.85 0.81 0.85 0.94 0.91 0.84 0.85 0.88 0.88 0.95 0.98 0.98 0.94 0.94 0.99 1.06 1.12 1.15 1.14 1.10 1.04 1.04 1.02 0.99 0.99 0.96 0.94 0.92 0.98 0.99 0.96 0.93 0.95 1.01 1.04 1.09 1.15 1.19 1.23 1.21 1.23
0.82 0.85 0.82 0.85 0.88 0.85 0.82 0.82 0.84 0.88 0.89 0.88 0.89 0.94 0.95 1.00 1.01 0.98 0.94 1.00 1.07 1.05 0.97 0.91 0.87 0.87 0.87 0.86 0.84 0.92 0.91 0.85 0.88 0.99 0.98 1.01 1.06 1.09 1.13 1.16 1.17 1.18 1.21